TimeCDT,TemperatureF,Dew PointF,Humidity,Sea Level PressureIn,VisibilityMPH,Wind Direction,Wind SpeedMPH,Gust SpeedMPH,PrecipitationIn,Events,Conditions,WindDirDegrees,DateUTC
12:13 AM,41.0,39.2,93,29.77,10.0,NNW,25.3,33.4,N/A,,Overcast,340,2012-10-25 05:13:00
12:33 AM,41.0,39.2,93,29.77,10.0,NNW,24.2,34.5,N/A,,Overcast,330,2012-10-25 05:33:00
12:52 AM,41.0,39.2,93,29.77,10.0,NNW,26.5,34.5,N/A,,Overcast,340,2012-10-25 05:52:00
1:13 AM,39.2,37.4,93,29.76,4.0,NNW,26.5,33.4,N/A,,Drizzle,340,2012-10-25 06:13:00
1:32 AM,39.2,37.4,93,29.77,3.0,NNW,24.2,29.9,N/A,Rain,Rain,340,2012-10-25 06:32:00
1:52 AM,39.2,37.4,93,29.73,3.0,NNW,26.5,31.1,N/A,Rain,Light Rain,340,2012-10-25 06:52:00
2:12 AM,39.2,37.4,93,29.79,3.0,NNW,24.2,33.4,N/A,Rain,Light Rain,330,2012-10-25 07:12:00
2:32 AM,39.2,37.4,93,29.76,3.0,NNW,21.9,31.1,N/A,Rain,Light Rain,340,2012-10-25 07:32:00
2:53 AM,39.2,37.4,93,29.76,3.0,NNW,25.3,31.1,0.02,Rain,Rain,340,2012-10-25 07:53:00
3:12 AM,37.4,37.4,100,29.74,3.0,North,27.6,32.2,0.06,Rain,Heavy Rain,350,2012-10-25 08:12:00
3:32 AM,37.4,37.4,100,29.75,4.0,NNW,19.6,29.9,0.15,Rain,Heavy Rain,330,2012-10-25 08:32:00
3:53 AM,37.4,37.4,100,29.75,5.0,NNW,27.6,33.4,0.20,Rain,Rain,340,2012-10-25 08:53:00
4:12 AM,37.4,35.6,93,29.73,7.0,NNW,28.8,38.0,N/A,Rain,Light Rain,330,2012-10-25 09:12:00
4:32 AM,35.6,35.6,100,29.75,10.0,NNW,31.1,36.8,N/A,Thunderstorm,Drizzle,330,2012-10-25 09:32:00
4:53 AM,35.6,33.8,93,29.75,5.0,NNW,34.5,-,N/A,Rain,Light Rain,330,2012-10-25 09:53:00
5:12 AM,35.6,33.8,93,29.74,5.0,NW,33.4,39.1,0.01,Rain-Thunderstorm,Light Thunderstorms and Rain,320,2012-10-25 10:12:00
5:32 AM,33.8,33.8,100,29.74,7.0,NNW,32.2,42.6,0.01,Rain,Light Rain,330,2012-10-25 10:32:00
5:53 AM,33.8,33.8,100,29.75,5.0,NW,31.1,39.1,0.02,,Overcast,320,2012-10-25 10:53:00
6:12 AM,33.8,33.8,100,29.77,3.0,NW,31.1,41.4,0.01,,Overcast,320,2012-10-25 11:12:00
6:32 AM,33.8,33.8,100,29.79,3.0,NNW,26.5,35.7,0.02,,Overcast,330,2012-10-25 11:32:00
7:32 AM,33.8,32.0,93,29.80,1.5,NW,27.6,34.5,0.01,Snow,Light Snow,320,2012-10-25 12:32:00
7:53 AM,33.8,32.0,93,29.80,1.2,NW,27.6,33.4,0.01,Snow,Light Snow,320,2012-10-25 12:53:00
8:12 AM,33.8,32.0,93,29.83,2.5,NW,24.2,35.7,N/A,Snow,Light Snow,320,2012-10-25 13:12:00
8:33 AM,33.8,32.0,93,29.83,1.5,NW,28.8,34.5,N/A,Snow,Light Snow,320,2012-10-25 13:33:00
8:53 AM,33.8,32.0,93,29.85,2.0,NW,32.2,35.7,N/A,Snow,Light Snow,320,2012-10-25 13:53:00
9:12 AM,33.8,30.2,87,29.85,2.5,NW,28.8,39.1,N/A,Snow,Light Snow,320,2012-10-25 14:12:00
9:33 AM,33.8,30.2,87,29.87,1.2,NW,28.8,33.4,N/A,Snow,Light Snow,320,2012-10-25 14:33:00
9:53 AM,32.0,30.2,93,29.89,0.8,NW,29.9,38.0,N/A,Snow,Light Snow,320,2012-10-25 14:53:00
10:33 AM,33.8,30.2,87,29.91,2.5,NW,27.6,33.4,N/A,Snow,Light Snow,310,2012-10-25 15:33:00
10:53 AM,33.8,30.2,87,29.92,1.5,NW,25.3,32.2,N/A,Snow,Light Snow,310,2012-10-25 15:53:00
11:12 AM,33.8,30.2,87,29.94,1.0,NW,21.9,32.2,N/A,Snow,Light Snow,310,2012-10-25 16:12:00
11:33 AM,33.8,30.2,87,29.93,1.2,NW,20.7,29.9,N/A,Snow,Light Snow,320,2012-10-25 16:33:00
11:53 AM,33.8,30.2,87,29.94,5.0,NW,21.9,29.9,N/A,Snow,Light Snow,320,2012-10-25 16:53:00
12:12 PM,33.8,30.2,87,29.94,10.0,NW,20.7,26.5,N/A,,Mostly Cloudy,310,2012-10-25 17:12:00
12:32 PM,33.8,30.2,87,29.95,10.0,NW,20.7,27.6,N/A,,Overcast,310,2012-10-25 17:32:00
12:53 PM,33.8,30.2,87,29.96,10.0,NW,23.0,31.1,N/A,,Overcast,310,2012-10-25 17:53:00
1:12 PM,33.8,30.2,87,29.96,10.0,NW,20.7,28.8,N/A,,Overcast,310,2012-10-25 18:12:00
1:32 PM,33.8,30.2,87,29.97,10.0,NW,20.7,27.6,N/A,,Overcast,310,2012-10-25 18:32:00
1:52 PM,33.8,30.2,87,29.97,10.0,NW,21.9,31.1,N/A,,Overcast,310,2012-10-25 18:52:00
2:12 PM,35.6,30.2,81,29.98,10.0,NW,25.3,31.1,N/A,,Overcast,320,2012-10-25 19:12:00
2:33 PM,35.6,32.0,87,29.99,10.0,NW,21.9,31.1,N/A,,Overcast,310,2012-10-25 19:33:00
3:12 PM,35.6,32.0,87,29.99,10.0,WNW,21.9,29.9,N/A,,Mostly Cloudy,300,2012-10-25 20:12:00
3:33 PM,35.6,30.2,81,30.01,10.0,NW,20.7,27.6,N/A,,Overcast,310,2012-10-25 20:33:00
3:52 PM,35.6,30.2,81,30.02,10.0,WNW,20.7,26.5,N/A,,Overcast,300,2012-10-25 20:52:00
4:13 PM,35.6,30.2,81,30.04,10.0,WNW,20.7,29.9,N/A,,Overcast,300,2012-10-25 21:13:00
4:32 PM,35.6,30.2,81,30.05,10.0,WNW,19.6,32.2,N/A,,Overcast,300,2012-10-25 21:32:00
4:52 PM,35.6,30.2,81,30.05,10.0,WNW,20.7,28.8,N/A,,Overcast,300,2012-10-25 21:52:00
5:32 PM,35.6,28.4,75,30.09,10.0,WNW,18.4,28.8,N/A,,Overcast,300,2012-10-25 22:32:00
5:52 PM,35.6,28.4,75,30.10,10.0,WNW,16.1,24.2,N/A,,Overcast,300,2012-10-25 22:52:00
6:13 PM,35.6,30.2,81,30.11,10.0,WNW,12.7,-,N/A,,Overcast,290,2012-10-25 23:13:00
6:32 PM,35.6,30.2,81,30.12,10.0,WNW,16.1,20.7,N/A,,Overcast,290,2012-10-25 23:32:00
6:52 PM,35.6,30.2,81,30.13,10.0,WNW,15.0,-,N/A,,Overcast,290,2012-10-25 23:52:00
7:13 PM,35.6,28.4,75,30.14,10.0,WNW,15.0,25.3,N/A,,Overcast,300,2012-10-26 00:13:00
7:32 PM,35.6,28.4,75,30.15,10.0,WNW,16.1,21.9,N/A,,Overcast,300,2012-10-26 00:32:00
7:52 PM,35.6,28.4,75,30.16,10.0,WNW,17.3,23.0,N/A,,Overcast,300,2012-10-26 00:52:00
8:32 PM,35.6,28.4,75,30.17,10.0,WNW,13.8,-,N/A,,Overcast,290,2012-10-26 01:32:00
8:52 PM,35.6,28.4,75,30.18,10.0,WNW,15.0,-,N/A,,Overcast,300,2012-10-26 01:52:00
9:13 PM,35.6,26.6,70,30.18,10.0,WNW,15.0,19.6,N/A,,Overcast,300,2012-10-26 02:13:00
9:32 PM,35.6,26.6,70,30.19,10.0,WNW,13.8,19.6,N/A,,Overcast,300,2012-10-26 02:32:00
9:52 PM,35.6,28.4,75,30.20,10.0,WNW,10.4,-,N/A,,Overcast,290,2012-10-26 02:52:00
10:53 PM,35.6,28.4,75,30.22,10.0,WNW,12.7,-,N/A,,Overcast,290,2012-10-26 03:53:00
11:12 PM,35.6,28.4,75,30.22,10.0,WNW,13.8,17.3,N/A,,Overcast,290,2012-10-26 04:12:00
11:32 PM,35.6,28.4,75,30.22,10.0,WNW,12.7,-,N/A,,Overcast,300,2012-10-26 04:32:00